SCP
0 0 0 0 0 0 0 0 0 0 0 0 0 0 0 0 0 0 0 0 0 0 0 0 0 0 0 0 0 0 0 0 0 0 0 0 0 0 0 0 0 0 0 0 0 0 0 0 0
0 0 0 0 0 0 0 0 0 0 0 0 0 0 0 0 0 0 0 0 0 0 0 0 0 0 0 0 0 0 0 0 0 0 0 0 0 0 0 0 0 0 0 0 0 0 0 0 0
0 0 0 0 0 0 0 0 0 0 0 0 0 0 0 0 0 0 0 0 0 0 0 0 1 0 0 0 0 0 0 0 0 0 0 0 0 0 0 0 0 0 0 0 0 0 0 0 0
0 0 0 0 0 0 0 0 0 0 0 0 0 0 0 0 0 0 0 0 0 0 0 1 1 1 0 0 0 0 0 0 0 0 0 0 0 0 0 0 0 0 0 0 0 0 0 0 0
0 0 0 0 0 0 0 0 0 0 0 0 0 0 0 0 0 0 0 0 0 0 0 1 1 1 1 0 0 0 0 0 0 0 0 0 0 0 0 0 0 0 0 0 0 0 0 0 0
0 0 0 0 0 0 0 0 0 0 0 0 0 0 0 0 0 0 0 0 0 0 0 1 1 1 1 0 0 0 0 0 0 0 0 0 0 0 0 0 0 0 0 0 0 0 0 0 0
0 0 0 0 0 0 0 0 0 0 0 0 0 0 0 0 0 0 0 0 0 0 0 0 0 0 0 0 0 0 0 0 0 0 0 0 0 0 0 0 0 0 0 0 0 0 0 0 0
0 0 0 0 0 0 0 0 0 0 0 0 0 0 0 0 0 0 0 0 0 0 0 0 0 0 0 0 0 0 0 0 0 0 0 0 0 0 0 0 0 0 0 0 0 0 0 0 0
0 0 0 0 0 0 0 0 0 0 0 0 0 0 0 0 0 0 0 0 0 0 0 0 0 0 0 0 0 0 0 0 0 0 0 0 0 0 0 0 0 0 0 0 0 0 0 0 0
0 0 0 0 0 0 0 0 0 0 0 0 0 0 0 0 0 0 0 0 0 0 0 0 0 0 0 0 0 0 0 0 0 0 0 0 0 0 0 0 0 0 0 0 0 0 0 0 0
0 0 0 0 0 0 0 0 0 0 0 0 0 0 0 0 0 0 0 0 0 0 0 0 0 0 0 0 0 0 0 0 0 0 0 0 0 0 0 0 0 0 0 0 0 0 0 0 0
0 0 0 0 0 0 0 0 0 0 0 0 0 0 0 0 0 0 0 0 0 0 0 0 0 0 0 0 0 0 0 0 0 0 0 0 0 0 0 0 0 0 0 0 0 0 0 0 0
0 0 0 0 0 0 0 0 0 0 0 0 0 0 0 0 0 0 0 0 0 0 0 0 0 0 0 0 0 0 0 0 0 0 0 0 0 0 0 0 0 0 0 0 0 0 0 0 0
0 0 0 0 0 0 0 0 0 0 0 0 0 0 0 0 0 0 0 0 0 0 0 0 0 0 0 0 0 0 0 0 0 0 0 0 0 0 0 0 0 0 0 0 0 0 0 0 0
0 0 0 0 0 0 0 0 0 0 0 0 0 0 0 0 0 0 0 0 0 0 0 0 0 0 0 0 0 0 0 0 0 0 0 0 0 0 0 0 0 0 0 0 0 0 0 0 0
0 0 0 0 0 0 0 0 0 0 0 0 0 0 0 0 0 0 0 0 0 1 1 0 0 0 0 0 0 0 0 0 0 0 0 0 0 0 0 0 0 0 0 0 0 0 0 0 0
0 0 0 0 0 0 0 0 0 0 0 0 0 0 0 0 0 0 0 0 1 1 1 0 0 0 0 0 0 0 0 0 0 0 0 0 0 0 0 0 0 0 0 0 0 0 0 0 0
0 0 0 0 0 0 0 0 0 0 0 0 0 0 0 0 0 0 0 0 1 1 1 0 0 0 0 0 0 0 0 0 0 0 0 0 0 0 0 0 0 0 0 0 0 0 0 0 0
0 0 0 0 0 0 0 0 0 0 0 0 0 0 0 0 0 0 0 0 1 1 1 0 0 0 0 0 0 0 0 0 0 0 0 0 0 0 0 0 0 0 0 0 0 0 0 0 0
0 0 0 0 0 0 0 0 0 0 0 0 0 0 0 0 0 0 0 0 1 1 1 1 0 0 0 0 0 0 0 0 0 0 0 0 0 0 0 0 0 0 0 0 0 0 0 0 0
0 0 0 0 0 0 0 0 0 0 0 0 0 0 0 0 0 0 0 1 1 1 1 1 1 1 0 0 0 0 0 0 0 0 0 0 0 0 0 0 0 0 0 0 0 0 0 0 0
0 0 0 0 0 0 0 0 0 0 0 0 0 0 0 0 0 0 0 1 1 1 1 1 1 0 0 0 0 0 0 0 0 0 0 0 0 0 0 0 0 0 0 0 0 0 0 0 0
0 0 0 0 0 0 0 0 0 0 0 0 0 0 0 0 0 0 0 0 1 0 0 0 0 0 0 0 0 0 0 0 0 0 0 0 0 0 0 0 0 0 0 0 0 0 0 0 0
0 0 0 0 0 0 0 0 0 0 0 0 0 0 0 0 0 0 0 0 0 0 0 0 0 0 0 0 0 0 0 0 0 0 0 0 0 0 0 0 0 0 0 0 0 0 0 0 0
0 0 0 0 0 0 0 0 0 0 0 0 0 0 0 0 0 0 0 0 0 0 0 0 0 0 0 0 0 0 0 0 0 0 0 0 0 0 0 0 0 0 0 0 0 0 0 0 0
0 0 0 0 0 0 0 0 0 0 0 0 0 0 0 0 0 0 0 0 0 0 0 0 0 0 0 0 0 0 0 0 0 0 0 0 0 0 0 0 0 0 0 0 0 0 0 0 0
0 0 0 0 0 0 0 0 0 0 0 0 0 0 0 0 0 0 0 0 0 0 0 0 0 0 0 0 0 0 0 0 0 0 0 0 0 0 0 0 0 0 0 0 0 0 0 0 0
0 0 0 0 0 0 0 0 0 0 0 0 0 0 0 0 0 0 0 0 0 0 0 0 0 0 0 0 0 0 0 0 0 0 0 0 0 0 0 0 0 0 0 0 0 0 0 0 0
0 0 0 0 0 0 0 0 0 0 0 0 0 0 0 0 0 0 0 0 0 0 0 0 0 0 0 0 0 0 0 0 0 0 0 0 0 0 0 0 0 0 0 0 0 0 0 0 0
0 0 0 0 0 0 0 0 0 0 0 0 0 0 0 0 0 0 0 0 0 0 0 0 0 0 0 0 0 0 0 0 0 0 0 0 0 0 0 0 0 0 0 0 0 0 0 0 0
Wind_Speed
9 8 7 6 8 4 4 5 3 3 3 4 3 2 3 5 6 6 6 7 8 10 12 13 9 9 9 9 10 10 11 11 11 11 11 10 10 9 9 9 8 8 8 8 8 7 7 7 7
7 6 7 7 6 2 5 5 4 4 5 3 3 2 3 5 6 6 6 8 9 10 11 11 11 10 10 9 10 10 10 10 10 10 10 10 9 8 8 8 8 7 7 7 7 7 6 6 7
7 7 7 6 2 2 5 5 4 5 3 2 3 3 3 5 5 5 7 9 10 11 11 12 11 10 10 9 10 10 10 10 10 9 9 8 8 8 7 7 7 7 6 5 5 5 5 5 6
6 7 7 6 1 3 3 4 3 4 3 2 2 5 5 5 3 6 10 10 10 11 11 13 10 10 9 9 9 10 10 9 9 9 9 8 7 7 6 6 6 6 5 5 5 5 5 5 5
7 7 7 4 2 3 2 2 1 2 2 3 2 4 6 5 6 9 10 10 9 10 10 13 10 10 9 9 9 9 9 9 8 8 8 7 7 6 6 5 5 5 5 4 4 4 3 4 4
6 6 5 3 3 3 3 1 2 1 3 4 3 4 6 6 8 9 10 9 9 9 10 12 11 9 9 8 8 8 8 8 8 8 7 6 6 5 4 4 4 4 4 4 3 3 3 3 4
7 5 4 2 2 3 3 2 1 1 2 3 2 4 7 8 8 9 9 9 9 8 8 8 10 10 9 8 7 7 7 7 7 7 6 6 5 5 4 4 4 4 3 3 3 3 3 3 3
6 6 5 3 2 3 4 2 0 2 2 3 2 2 6 10 10 10 9 9 8 8 7 7 7 8 7 8 8 7 7 6 6 6 6 5 6 6 5 5 4 4 4 4 3 3 3 3 2
7 8 3 2 1 2 3 1 2 1 3 3 1 3 7 14 13 11 9 8 8 7 6 6 7 6 6 6 9 8 8 7 6 6 6 5 4 4 5 4 4 4 4 4 3 3 3 4 5
7 6 1 1 2 1 0 1 1 4 5 5 5 6 10 13 13 11 10 10 8 7 7 6 6 6 5 4 5 5 5 5 4 3 3 3 2 1 1 7 5 4 4 5 5 4 6 6 4
7 6 2 1 2 3 3 2 3 4 4 3 5 9 12 12 11 10 9 8 8 7 6 5 5 4 3 3 3 2 2 3 3 3 2 1 1 1 2 2 5 5 6 4 5 6 4 3 1
7 5 5 4 3 5 4 3 3 5 2 2 3 10 12 12 11 10 9 8 7 7 7 6 5 4 3 2 2 2 2 2 2 3 2 1 1 0 0 1 1 2 2 2 2 2 2 2 3
9 6 5 6 6 5 5 5 4 3 1 2 6 9 11 11 10 8 8 7 7 7 7 6 5 5 4 3 2 2 2 2 2 2 2 1 1 1 1 1 1 1 1 2 3 2 2 3 3
5 6 7 7 6 5 6 5 6 3 3 5 7 8 9 9 9 9 8 7 7 7 6 5 5 5 4 3 2 2 2 2 1 2 2 2 1 0 1 2 2 2 1 1 2 2 3 3 2
6 8 8 7 6 5 6 8 7 5 5 6 7 7 8 8 8 9 8 8 7 7 6 5 5 5 4 3 3 2 2 2 1 1 2 2 1 1 2 1 2 1 1 2 2 2 3 3 3
9 10 9 6 6 5 8 8 4 6 7 7 7 8 8 8 8 8 8 7 7 7 6 5 4 5 5 3 2 1 1 2 2 1 2 2 1 1 2 1 1 1 1 1 2 2 2 2 2
11 10 9 5 6 5 9 7 2 5 7 7 8 8 9 8 8 7 7 7 7 7 6 6 4 5 4 3 3 2 2 1 2 1 1 1 1 2 2 1 0 2 2 2 2 1 2 2 2
9 9 9 7 4 7 9 7 4 6 7 8 8 9 9 9 9 8 8 8 7 6 6 6 5 5 4 3 3 2 2 2 2 2 1 2 2 2 2 1 1 2 1 1 1 1 1 2 2
9 10 9 6 2 6 8 8 5 6 7 7 8 9 10 9 9 8 8 8 8 7 6 6 5 5 4 3 2 2 2 2 2 2 2 2 2 2 2 1 1 2 1 2 2 2 3 2 2
11 11 9 5 3 5 7 8 5 5 6 7 8 9 9 9 9 9 9 9 9 8 7 7 7 6 5 3 2 1 1 2 1 1 1 2 2 2 2 2 2 2 2 3 3 3 2 2 2
12 11 9 7 5 7 7 9 7 5 4 5 6 7 8 9 9 10 10 10 9 9 8 6 7 6 5 4 3 2 2 2 2 2 2 2 2 2 2 2 2 2 3 2 3 3 3 2 2
10 7 8 7 8 6 6 8 5 5 5 5 5 6 7 8 9 10 10 10 10 9 8 7 6 6 5 5 3 3 3 2 2 2 2 2 3 2 2 2 3 3 3 2 4 2 2 3 2
7 4 7 8 9 9 8 9 4 4 5 4 4 5 5 7 8 9 9 10 9 9 8 7 7 6 5 4 4 4 3 2 2 2 2 3 2 3 2 3 3 3 3 3 3 2 3 3 3
6 7 8 9 10 11 8 9 5 2 3 3 4 4 4 5 7 8 8 9 8 8 7 7 7 6 5 5 4 4 4 3 3 3 3 3 3 3 3 3 3 3 3 3 3 3 4 3 3
11 9 7 9 9 7 4 7 3 1 1 1 3 4 5 5 6 7 9 9 9 9 8 7 7 6 5 5 4 4 4 5 5 4 4 3 3 3 2 3 3 3 2 3 3 4 4 4 4
11 12 8 7 7 4 5 6 1 3 2 1 2 4 5 5 5 6 7 7 8 8 8 7 7 6 6 5 5 4 5 4 3 4 4 4 3 2 2 3 3 3 3 3 3 3 3 3 3
10 11 8 10 9 8 5 4 4 2 2 2 4 5 5 5 5 6 6 6 7 7 8 7 7 6 6 5 4 4 4 3 3 4 4 3 2 2 3 3 3 3 3 3 3 2 2 2 3
9 7 6 8 7 8 7 6 2 2 2 3 4 5 5 5 5 5 5 5 6 6 6 7 6 6 6 5 4 3 3 4 4 4 3 2 2 2 2 3 3 3 3 3 3 3 2 2 2
9 9 8 8 8 8 6 1 4 2 2 3 3 4 4 4 5 5 5 5 5 5 6 6 6 6 5 4 4 3 3 3 3 3 3 3 2 3 3 3 3 3 3 3 3 3 3 3 3
8 8 8 8 7 7 7 1 5 3 2 2 3 4 4 4 4 5 4 4 4 5 5 5 5 5 4 4 4 4 3 3 3 3 3 3 3 3 3 3 3 3 3 3 3 3 3 3 3
Wind_Direction
195 201 220 234 236 220 84 74 53 87 87 61 48 28 36 29 18 59 84 119 127 133 132 137 131 132 130 129 128 128 129 130 132 135 137 137 137 139 139 139 138 136 136 137 137 140 141 140 138
194 201 227 239 255 169 90 67 67 65 73 97 108 90 81 71 56 85 112 125 137 135 135 132 128 131 129 127 127 127 128 129 127 128 130 134 138 139 138 139 139 137 138 144 144 148 152 150 149
200 229 253 247 270 21 69 69 76 93 111 137 113 76 49 61 85 102 118 138 141 136 132 122 131 130 129 127 127 128 128 129 128 126 128 133 140 139 136 137 141 142 144 146 150 153 159 157 161
218 222 235 247 138 58 36 65 96 136 133 123 126 108 89 58 76 107 129 143 141 136 131 124 132 131 131 132 134 131 132 133 132 130 131 134 138 138 140 140 143 147 152 158 160 158 162 156 165
239 248 233 210 129 84 55 49 177 174 119 119 137 106 98 86 96 117 135 143 141 134 129 125 127 130 130 134 133 134 134 134 133 132 131 131 136 140 141 143 146 151 155 160 161 163 167 170 178
238 243 240 197 129 106 95 106 183 173 130 135 147 124 95 107 124 131 137 142 135 131 129 126 130 128 128 128 128 132 134 135 136 135 136 137 139 142 143 149 158 156 153 156 152 163 172 179 185
265 259 256 233 154 131 97 105 202 202 143 130 150 133 123 133 131 136 137 136 131 133 133 135 140 139 137 126 121 125 128 134 135 133 135 139 146 148 154 151 154 154 156 168 173 176 178 183 189
277 263 225 211 200 115 108 130 118 291 93 107 188 161 137 143 144 144 142 141 139 141 140 142 143 141 150 143 131 125 128 133 134 137 143 154 158 156 169 169 161 168 170 172 174 178 179 177 182
253 250 226 198 206 114 116 169 127 169 141 137 117 62 110 140 149 151 147 150 148 147 148 152 148 150 155 144 136 146 151 148 160 154 157 190 185 169 174 144 144 164 171 173 175 180 183 195 183
242 249 254 18 324 348 132 251 182 192 180 166 145 120 131 149 159 162 162 162 159 161 163 161 159 156 156 145 147 165 170 155 172 139 168 192 155 166 166 131 144 156 172 180 179 193 204 224 200
237 257 284 249 278 289 267 246 226 230 218 197 172 152 153 161 166 170 168 166 162 162 166 163 160 158 165 160 163 165 167 154 165 151 177 169 189 170 188 171 165 177 193 199 177 204 216 221 225
239 249 270 273 275 267 270 251 231 245 304 42 151 154 161 168 172 174 173 170 165 166 168 167 167 166 173 168 165 183 182 171 170 149 197 184 170 196 132 236 195 197 194 201 226 226 207 233 231
234 247 251 261 261 261 257 244 246 239 222 139 144 160 167 171 173 174 172 170 169 168 168 164 169 162 160 164 202 180 187 181 157 174 165 217 214 220 198 191 232 236 223 212 226 223 208 227 223
249 256 260 254 242 231 235 233 226 210 172 162 165 171 173 176 177 175 174 170 168 166 166 159 162 160 167 173 186 188 186 161 181 174 167 226 242 258 239 221 229 235 242 265 250 227 214 226 237
252 249 243 228 225 215 230 231 222 186 175 175 175 176 177 178 179 181 179 177 173 168 166 165 166 162 169 178 187 184 178 171 174 165 170 221 237 230 239 238 238 255 250 225 230 214 218 218 223
228 234 236 205 211 207 239 248 174 168 186 191 184 179 180 177 183 182 177 179 171 167 164 172 171 161 169 175 190 186 189 181 185 189 183 203 227 238 246 251 259 250 241 235 220 226 230 228 244
217 232 237 205 198 219 237 260 158 186 201 203 193 187 185 180 184 182 177 173 169 169 168 169 170 166 167 166 176 178 173 206 213 209 201 191 222 237 246 240 343 241 226 228 246 207 254 241 255
230 239 240 242 195 234 244 255 231 215 218 215 200 192 191 189 186 181 176 169 169 168 169 171 169 164 167 165 170 177 179 201 215 212 183 213 225 227 254 208 199 246 232 226 247 240 235 258 261
257 255 253 253 236 249 251 258 250 224 221 218 207 198 197 195 186 178 174 171 170 170 172 177 174 161 172 176 194 202 196 207 222 211 171 209 226 213 235 242 186 230 216 233 239 238 220 231 251
247 248 247 236 212 255 262 265 255 229 227 223 214 205 202 195 185 179 177 174 175 175 177 178 177 171 180 173 196 220 236 235 238 233 184 215 224 228 219 227 228 203 204 207 224 235 251 234 230
239 247 252 257 245 232 254 252 227 206 214 215 217 214 207 202 191 184 181 180 179 178 180 181 175 174 178 171 181 179 191 213 204 213 198 215 231 228 243 231 241 227 232 205 222 230 240 251 223
239 235 246 248 249 242 239 271 231 203 202 205 211 210 205 199 191 186 182 184 185 180 174 172 171 172 174 177 186 199 211 220 222 233 214 218 223 224 213 225 229 235 235 212 222 207 239 247 247
248 237 239 244 250 258 237 259 250 191 222 210 198 199 194 191 189 184 183 185 183 176 173 169 171 177 177 181 185 206 221 229 221 222 205 228 211 219 218 220 220 224 229 220 233 220 242 244 255
220 220 223 233 241 246 245 254 267 216 255 225 189 177 180 181 183 182 178 176 172 171 172 171 172 177 177 181 190 207 217 227 229 228 216 224 210 214 214 221 222 228 227 217 226 230 231 242 253
215 228 227 222 226 238 211 247 276 49 332 227 184 168 168 170 170 172 173 170 170 172 174 173 173 178 181 188 197 208 213 214 219 229 221 232 223 218 208 227 224 227 226 231 235 234 243 234 235
214 232 248 259 252 247 208 244 101 78 69 109 147 152 154 160 160 165 169 171 172 173 174 178 180 181 185 194 199 208 213 218 220 225 237 228 233 226 208 223 221 221 222 230 233 236 232 232 237
213 231 260 270 265 260 236 218 162 125 130 137 140 143 149 151 153 158 160 169 173 175 179 182 182 185 191 198 199 206 213 226 231 224 230 227 225 220 204 214 217 219 219 230 234 238 242 241 244
244 236 234 248 258 255 243 238 229 168 179 160 154 147 143 146 146 145 149 158 167 173 175 179 183 189 196 198 205 203 206 217 224 226 222 226 220 214 210 215 222 224 218 223 230 228 226 236 240
202 216 240 254 262 268 263 235 53 112 162 171 144 131 139 142 139 140 145 154 163 169 173 178 181 189 195 198 202 206 203 207 214 221 219 213 214 204 216 221 223 226 228 228 230 237 233 237 237
231 231 232 247 251 258 276 305 73 80 106 133 123 120 128 134 129 131 137 147 162 168 170 172 181 188 187 188 195 198 198 196 202 215 221 210 206 209 214 218 215 221 230 230 230 235 235 242 245